Time,TemperatureF,DewpointF,PressureIn,WindDirection,WindDirectionDegrees,WindSpeedMPH,WindSpeedGustMPH,Humidity,HourlyPrecipIn,Conditions,Clouds,dailyrainin,SoftwareType,DateUTC
2013-04-07 00:04:00,52.3,38.8,30.29,NNE,30,0.0,0.0,60,0.00,,---,0.00,VWS V14.01,2013-04-07 04:04:00,
2013-04-07 00:09:00,52.6,39.1,30.29,NNE,28,0.0,2.0,60,0.00,,---,0.00,VWS V14.01,2013-04-07 04:09:00,
2013-04-07 00:14:00,53.1,38.7,30.29,NNE,25,0.0,2.0,58,0.00,,---,0.00,VWS V14.01,2013-04-07 04:14:00,
2013-04-07 00:19:00,53.2,39.3,30.29,NNE,31,0.0,0.0,59,0.00,,---,0.00,VWS V14.01,2013-04-07 04:19:00,
2013-04-07 00:24:00,53.3,39.3,30.29,NE,39,0.0,0.0,59,0.00,,---,0.00,VWS V14.01,2013-04-07 04:24:00,
2013-04-07 00:29:00,53.3,39.3,30.29,SSW,198,0.0,1.0,59,0.00,,---,0.00,VWS V14.01,2013-04-07 04:29:00,
2013-04-07 00:34:00,53.2,38.8,30.29,North,349,0.0,0.0,58,0.00,,---,0.00,VWS V14.01,2013-04-07 04:34:00,
2013-04-07 00:39:00,53.3,39.3,30.29,West,265,0.0,1.0,59,0.00,,---,0.00,VWS V14.01,2013-04-07 04:39:00,
2013-04-07 00:44:00,53.1,40.0,30.29,West,267,0.0,0.0,61,0.00,,---,0.00,VWS V14.01,2013-04-07 04:44:00,
2013-04-07 00:49:00,53.1,39.2,30.29,ESE,103,0.0,1.0,59,0.00,,---,0.00,VWS V14.01,2013-04-07 04:49:00,
2013-04-07 00:54:00,53.1,39.2,30.29,ENE,76,0.0,1.0,59,0.00,,---,0.00,VWS V14.01,2013-04-07 04:54:00,
2013-04-07 00:59:00,52.9,39.4,30.29,East,79,0.0,0.0,60,0.00,,---,0.00,VWS V14.01,2013-04-07 04:59:00,
2013-04-07 01:04:00,52.8,37.1,30.29,SSW,196,0.0,3.0,55,0.00,,---,0.00,VWS V14.01,2013-04-07 05:04:00,
2013-04-07 01:09:00,52.9,37.2,30.29,SE,145,0.0,1.0,55,0.00,,---,0.00,VWS V14.01,2013-04-07 05:09:00,
2013-04-07 01:14:00,52.9,36.7,30.29,South,185,0.0,2.0,54,0.00,,---,0.00,VWS V14.01,2013-04-07 05:14:00,
2013-04-07 01:20:00,52.8,36.6,30.29,SSE,151,0.0,1.0,54,0.00,,---,0.00,VWS V14.01,2013-04-07 05:20:00,
2013-04-07 01:25:00,52.6,36.0,30.29,SE,131,0.0,1.0,53,0.00,,---,0.00,VWS V14.01,2013-04-07 05:25:00,
2013-04-07 01:30:00,52.6,36.9,30.29,East,79,0.0,4.0,55,0.00,,---,0.00,VWS V14.01,2013-04-07 05:30:00,
2013-04-07 01:35:00,52.5,36.8,30.29,SSE,159,0.0,2.0,55,0.00,,---,0.00,VWS V14.01,2013-04-07 05:35:00,
2013-04-07 01:40:00,52.2,37.9,30.29,SE,137,0.0,1.0,58,0.00,,---,0.00,VWS V14.01,2013-04-07 05:40:00,
2013-04-07 01:45:00,52.0,37.2,30.28,ESE,117,0.0,4.0,57,0.00,,---,0.00,VWS V14.01,2013-04-07 05:45:00,
2013-04-07 01:50:00,52.0,36.8,30.28,South,172,0.0,1.0,56,0.00,,---,0.00,VWS V14.01,2013-04-07 05:50:00,
2013-04-07 01:55:00,51.9,35.8,30.28,South,178,0.0,1.0,54,0.00,,---,0.00,VWS V14.01,2013-04-07 05:55:00,
2013-04-07 02:00:00,51.7,34.2,30.29,SSE,167,0.0,3.0,51,0.00,,---,0.00,VWS V14.01,2013-04-07 06:00:00,
2013-04-07 02:05:00,51.6,34.6,30.29,SSE,165,0.0,5.0,52,0.00,,---,0.00,VWS V14.01,2013-04-07 06:05:00,
2013-04-07 02:10:00,51.3,34.3,30.29,NW,318,0.0,2.0,52,0.00,,---,0.00,VWS V14.01,2013-04-07 06:10:00,
2013-04-07 02:15:00,51.1,33.6,30.29,NW,318,0.0,0.0,51,0.00,,---,0.00,VWS V14.01,2013-04-07 06:15:00,
2013-04-07 02:20:00,50.8,34.3,30.29,NW,318,0.0,0.0,53,0.00,,---,0.00,VWS V14.01,2013-04-07 06:20:00,
2013-04-07 02:25:00,50.5,33.5,30.29,NW,318,0.0,0.0,52,0.00,,---,0.00,VWS V14.01,2013-04-07 06:25:00,
2013-04-07 02:30:00,50.2,34.2,30.29,NW,318,0.0,0.0,54,0.00,,---,0.00,VWS V14.01,2013-04-07 06:30:00,
2013-04-07 02:35:00,49.9,34.4,30.29,NW,318,0.0,0.0,55,0.00,,---,0.00,VWS V14.01,2013-04-07 06:35:00,
2013-04-07 02:40:00,49.6,34.1,30.29,NW,318,0.0,0.0,55,0.00,,---,0.00,VWS V14.01,2013-04-07 06:40:00,
2013-04-07 02:45:00,49.2,34.2,30.29,NW,318,0.0,0.0,56,0.00,,---,0.00,VWS V14.01,2013-04-07 06:45:00,
2013-04-07 02:50:00,48.9,34.8,30.29,NW,318,0.0,0.0,58,0.00,,---,0.00,VWS V14.01,2013-04-07 06:50:00,
2013-04-07 02:55:00,48.5,35.3,30.29,NW,318,0.0,0.0,60,0.00,,---,0.00,VWS V14.01,2013-04-07 06:55:00,
2013-04-07 03:00:00,48.2,35.4,30.29,NW,318,0.0,0.0,61,0.00,,---,0.00,VWS V14.01,2013-04-07 07:00:00,
2013-04-07 03:05:00,47.7,35.3,30.29,NW,318,0.0,0.0,62,0.00,,---,0.00,VWS V14.01,2013-04-07 07:05:00,
2013-04-07 03:10:00,47.1,36.3,30.29,NW,318,0.0,0.0,66,0.00,,---,0.00,VWS V14.01,2013-04-07 07:10:00,
2013-04-07 03:15:00,46.7,36.3,30.28,NW,318,0.0,0.0,67,0.00,,---,0.00,VWS V14.01,2013-04-07 07:15:00,
2013-04-07 03:20:00,46.4,36.8,30.28,NW,318,0.0,0.0,69,0.00,,---,0.00,VWS V14.01,2013-04-07 07:20:00,
2013-04-07 03:25:00,46.0,36.4,30.28,NW,318,0.0,0.0,69,0.00,,---,0.00,VWS V14.01,2013-04-07 07:25:00,
2013-04-07 03:30:00,45.7,36.8,30.28,NW,318,0.0,0.0,71,0.00,,---,0.00,VWS V14.01,2013-04-07 07:30:00,
2013-04-07 03:35:00,45.4,36.6,30.28,NW,318,0.0,0.0,71,0.00,,---,0.00,VWS V14.01,2013-04-07 07:35:00,
2013-04-07 03:40:00,45.1,36.3,30.28,NW,318,0.0,0.0,71,0.00,,---,0.00,VWS V14.01,2013-04-07 07:40:00,
2013-04-07 03:45:00,44.8,36.0,30.28,NW,318,0.0,0.0,71,0.00,,---,0.00,VWS V14.01,2013-04-07 07:45:00,
2013-04-07 03:50:00,44.3,36.5,30.28,NW,318,0.0,0.0,74,0.00,,---,0.00,VWS V14.01,2013-04-07 07:50:00,
2013-04-07 03:55:00,44.2,37.1,30.28,NW,318,0.0,0.0,76,0.00,,---,0.00,VWS V14.01,2013-04-07 07:55:00,
2013-04-07 04:00:00,43.9,39.1,30.28,NW,318,0.0,0.0,83,0.00,,---,0.00,VWS V14.01,2013-04-07 08:00:00,
2013-04-07 04:05:00,43.6,38.5,30.28,NW,318,0.0,0.0,82,0.00,,---,0.00,VWS V14.01,2013-04-07 08:05:00,
2013-04-07 04:10:00,43.2,38.1,30.28,NW,318,0.0,0.0,82,0.00,,---,0.00,VWS V14.01,2013-04-07 08:10:00,
2013-04-07 04:15:00,43.1,37.7,30.28,NW,318,0.0,0.0,81,0.00,,---,0.00,VWS V14.01,2013-04-07 08:15:00,
2013-04-07 04:20:00,42.8,37.4,30.28,NW,318,0.0,0.0,81,0.00,,---,0.00,VWS V14.01,2013-04-07 08:20:00,
2013-04-07 04:25:00,42.6,37.8,30.28,NW,318,0.0,0.0,83,0.00,,---,0.00,VWS V14.01,2013-04-07 08:25:00,
2013-04-07 04:30:00,42.5,37.4,30.28,NW,318,0.0,0.0,82,0.00,,---,0.00,VWS V14.01,2013-04-07 08:30:00,
2013-04-07 04:35:00,42.2,37.7,30.28,NW,318,0.0,0.0,84,0.00,,---,0.00,VWS V14.01,2013-04-07 08:35:00,
2013-04-07 04:40:00,42.1,38.2,30.28,NW,318,0.0,0.0,86,0.00,,---,0.00,VWS V14.01,2013-04-07 08:40:00,
2013-04-07 04:45:00,41.8,37.9,30.28,NW,318,0.0,0.0,86,0.00,,---,0.00,VWS V14.01,2013-04-07 08:45:00,
2013-04-07 04:50:00,41.6,38.6,30.28,NW,318,0.0,0.0,89,0.00,,---,0.00,VWS V14.01,2013-04-07 08:50:00,
2013-04-07 04:55:00,41.5,38.5,30.28,NW,318,0.0,0.0,89,0.00,,---,0.00,VWS V14.01,2013-04-07 08:55:00,
2013-04-07 05:00:00,41.3,38.3,30.29,NW,318,0.0,0.0,89,0.00,,---,0.00,VWS V14.01,2013-04-07 09:00:00,
2013-04-07 05:05:00,41.2,38.8,30.29,NW,318,0.0,0.0,91,0.00,,---,0.00,VWS V14.01,2013-04-07 09:05:00,
2013-04-07 05:10:00,40.9,38.2,30.29,NW,318,0.0,0.0,90,0.00,,---,0.00,VWS V14.01,2013-04-07 09:10:00,
2013-04-07 05:15:00,40.8,38.7,30.29,NW,318,0.0,0.0,92,0.00,,---,0.00,VWS V14.01,2013-04-07 09:15:00,
2013-04-07 05:20:00,40.8,38.9,30.29,NW,318,0.0,0.0,93,0.00,,---,0.00,VWS V14.01,2013-04-07 09:20:00,
2013-04-07 05:25:00,40.5,38.4,30.29,NW,318,0.0,0.0,92,0.00,,---,0.00,VWS V14.01,2013-04-07 09:25:00,
2013-04-07 05:30:00,40.3,38.2,30.29,NW,318,0.0,0.0,92,0.00,,---,0.00,VWS V14.01,2013-04-07 09:30:00,
2013-04-07 05:35:00,40.2,38.6,30.29,NW,318,0.0,0.0,94,0.00,,---,0.00,VWS V14.01,2013-04-07 09:35:00,
2013-04-07 05:40:00,40.1,38.2,30.29,NW,318,0.0,0.0,93,0.00,,---,0.00,VWS V14.01,2013-04-07 09:40:00,
2013-04-07 05:45:00,39.8,38.0,30.30,NW,318,0.0,0.0,93,0.00,,---,0.00,VWS V14.01,2013-04-07 09:45:00,
2013-04-07 05:50:00,39.6,38.3,30.30,NW,318,0.0,0.0,95,0.00,,---,0.00,VWS V14.01,2013-04-07 09:50:00,
2013-04-07 05:55:00,39.3,38.3,30.30,NW,318,0.0,0.0,96,0.00,,---,0.00,VWS V14.01,2013-04-07 09:55:00,
2013-04-07 06:00:00,39.2,38.2,30.31,NW,318,0.0,0.0,96,0.00,,---,0.00,VWS V14.01,2013-04-07 10:00:00,
2013-04-07 06:05:00,39.1,38.3,30.31,NW,318,0.0,0.0,97,0.00,,---,0.00,VWS V14.01,2013-04-07 10:05:00,
2013-04-07 06:10:00,38.9,37.9,30.31,NW,318,0.0,0.0,96,0.00,,---,0.00,VWS V14.01,2013-04-07 10:10:00,
2013-04-07 06:15:00,38.9,38.1,30.31,NW,318,0.0,0.0,97,0.00,,---,0.00,VWS V14.01,2013-04-07 10:15:00,
2013-04-07 06:20:00,38.8,38.3,30.31,NW,318,0.0,0.0,98,0.00,,---,0.00,VWS V14.01,2013-04-07 10:20:00,
2013-04-07 06:26:00,38.8,38.3,30.31,NW,318,0.0,0.0,98,0.00,,---,0.00,VWS V14.01,2013-04-07 10:26:00,
2013-04-07 06:31:00,38.8,38.3,30.32,NW,318,0.0,0.0,98,0.00,,---,0.00,VWS V14.01,2013-04-07 10:31:00,
2013-04-07 06:36:00,38.6,38.1,30.32,NW,318,0.0,0.0,98,0.00,,---,0.00,VWS V14.01,2013-04-07 10:36:00,
2013-04-07 06:41:00,38.5,38.0,30.32,NW,318,0.0,0.0,98,0.00,,---,0.00,VWS V14.01,2013-04-07 10:41:00,
2013-04-07 06:46:00,38.3,37.8,30.32,NW,318,0.0,0.0,98,0.00,,---,0.00,VWS V14.01,2013-04-07 10:46:00,
2013-04-07 06:51:00,38.3,37.8,30.32,NW,318,0.0,0.0,98,0.00,,---,0.00,VWS V14.01,2013-04-07 10:51:00,
2013-04-07 06:56:00,38.0,37.5,30.32,NW,318,0.0,0.0,98,0.00,,---,0.00,VWS V14.01,2013-04-07 10:56:00,
2013-04-07 07:01:00,38.0,37.5,30.32,NW,318,0.0,0.0,98,0.00,,---,0.00,VWS V14.01,2013-04-07 11:01:00,
2013-04-07 07:06:00,37.9,37.4,30.32,NW,318,0.0,0.0,98,0.00,,---,0.00,VWS V14.01,2013-04-07 11:06:00,
2013-04-07 07:11:00,37.9,37.4,30.32,NW,318,0.0,0.0,98,0.00,,---,0.00,VWS V14.01,2013-04-07 11:11:00,
2013-04-07 07:16:00,37.9,37.4,30.33,NW,318,0.0,0.0,98,0.00,,---,0.00,VWS V14.01,2013-04-07 11:16:00,
2013-04-07 07:21:00,38.2,37.7,30.33,NW,318,0.0,0.0,98,0.00,,---,0.00,VWS V14.01,2013-04-07 11:21:00,
2013-04-07 07:26:00,38.3,37.8,30.33,NW,318,0.0,0.0,98,0.00,,---,0.00,VWS V14.01,2013-04-07 11:26:00,
2013-04-07 07:31:00,38.6,38.1,30.34,NW,318,0.0,0.0,98,0.00,,---,0.00,VWS V14.01,2013-04-07 11:31:00,
2013-04-07 07:36:00,38.8,38.3,30.34,NW,318,0.0,0.0,98,0.00,,---,0.00,VWS V14.01,2013-04-07 11:36:00,
2013-04-07 07:41:00,38.9,38.4,30.34,NW,318,0.0,0.0,98,0.00,,---,0.00,VWS V14.01,2013-04-07 11:41:00,
2013-04-07 07:47:00,38.9,38.4,30.34,NW,318,0.0,0.0,98,0.00,,---,0.00,VWS V14.01,2013-04-07 11:47:00,
2013-04-07 07:52:00,39.1,38.6,30.34,NW,318,0.0,0.0,98,0.00,,---,0.00,VWS V14.01,2013-04-07 11:52:00,
2013-04-07 07:57:00,39.2,38.7,30.34,NW,318,0.0,0.0,98,0.00,,---,0.00,VWS V14.01,2013-04-07 11:57:00,
2013-04-07 08:02:00,39.9,39.4,30.34,NW,318,0.0,0.0,98,0.00,,---,0.00,VWS V14.01,2013-04-07 12:02:00,
2013-04-07 08:07:00,40.5,40.0,30.34,NW,318,0.0,0.0,98,0.00,,---,0.00,VWS V14.01,2013-04-07 12:07:00,
2013-04-07 08:12:00,40.9,40.4,30.34,NW,318,0.0,0.0,98,0.00,,---,0.00,VWS V14.01,2013-04-07 12:12:00,
2013-04-07 08:17:00,41.2,40.7,30.35,NW,318,0.0,0.0,98,0.00,,---,0.00,VWS V14.01,2013-04-07 12:17:00,
2013-04-07 08:22:00,41.6,41.1,30.35,NW,318,0.0,0.0,98,0.00,,---,0.00,VWS V14.01,2013-04-07 12:22:00,
2013-04-07 08:27:00,42.3,41.5,30.35,NW,318,0.0,0.0,97,0.00,,---,0.00,VWS V14.01,2013-04-07 12:27:00,
2013-04-07 08:32:00,42.9,41.6,30.35,NW,318,0.0,0.0,95,0.00,,---,0.00,VWS V14.01,2013-04-07 12:32:00,
2013-04-07 08:37:00,43.8,41.1,30.35,NW,318,0.0,0.0,90,0.00,,---,0.00,VWS V14.01,2013-04-07 12:37:00,
2013-04-07 08:42:00,45.1,41.5,30.35,NW,318,0.0,0.0,87,0.00,,---,0.00,VWS V14.01,2013-04-07 12:42:00,
2013-04-07 08:47:00,45.7,41.8,30.36,NW,318,0.0,0.0,86,0.00,,---,0.00,VWS V14.01,2013-04-07 12:47:00,
2013-04-07 08:52:00,46.4,41.5,30.36,NW,318,0.0,0.0,83,0.00,,---,0.00,VWS V14.01,2013-04-07 12:52:00,
2013-04-07 08:57:00,47.0,41.5,30.36,SW,226,0.0,0.0,81,0.00,,---,0.00,VWS V14.01,2013-04-07 12:57:00,
2013-04-07 09:02:00,47.7,40.8,30.35,SSW,205,0.0,0.0,77,0.00,,---,0.00,VWS V14.01,2013-04-07 13:02:00,
2013-04-07 09:07:00,48.3,41.4,30.35,SSW,209,0.0,0.0,77,0.00,,---,0.00,VWS V14.01,2013-04-07 13:07:00,
2013-04-07 09:12:00,48.8,41.6,30.35,SE,143,0.0,3.0,76,0.00,,---,0.00,VWS V14.01,2013-04-07 13:12:00,
2013-04-07 09:17:00,49.2,42.3,30.35,SW,217,0.0,1.0,77,0.00,,---,0.00,VWS V14.01,2013-04-07 13:17:00,
2013-04-07 09:22:00,49.6,41.3,30.35,East,82,0.0,0.0,73,0.00,,---,0.00,VWS V14.01,2013-04-07 13:22:00,
2013-04-07 09:27:00,50.2,42.2,30.35,ESE,121,1.0,2.0,74,0.00,,---,0.00,VWS V14.01,2013-04-07 13:27:00,
2013-04-07 09:32:00,50.8,42.8,30.35,South,181,0.0,0.0,74,0.00,,---,0.00,VWS V14.01,2013-04-07 13:32:00,
2013-04-07 09:37:00,51.3,42.2,30.35,South,179,0.0,0.0,71,0.00,,---,0.00,VWS V14.01,2013-04-07 13:37:00,
2013-04-07 09:42:00,51.7,42.6,30.35,East,90,1.0,3.0,71,0.00,,---,0.00,VWS V14.01,2013-04-07 13:42:00,
2013-04-07 09:47:00,52.0,43.6,30.35,WNW,287,0.0,1.0,73,0.00,,---,0.00,VWS V14.01,2013-04-07 13:47:00,
2013-04-07 09:52:00,52.6,43.8,30.35,ENE,78,0.0,2.0,72,0.00,,---,0.00,VWS V14.01,2013-04-07 13:52:00,
2013-04-07 09:57:00,52.9,43.0,30.35,South,171,2.0,2.0,69,0.00,,---,0.00,VWS V14.01,2013-04-07 13:57:00,
2013-04-07 10:02:00,53.1,43.6,30.34,SE,145,0.0,2.0,70,0.00,,---,0.00,VWS V14.01,2013-04-07 14:02:00,
2013-04-07 10:07:00,53.5,44.0,30.34,SE,137,0.0,0.0,70,0.00,,---,0.00,VWS V14.01,2013-04-07 14:07:00,
2013-04-07 10:12:00,53.9,44.3,30.34,East,86,0.0,1.0,70,0.00,,---,0.00,VWS V14.01,2013-04-07 14:12:00,
2013-04-07 10:17:00,54.4,45.6,30.34,East,96,0.0,1.0,72,0.00,,---,0.00,VWS V14.01,2013-04-07 14:17:00,
2013-04-07 10:22:00,55.1,44.7,30.34,WNW,303,0.0,2.0,68,0.00,,---,0.00,VWS V14.01,2013-04-07 14:22:00,
2013-04-07 10:27:00,55.4,45.4,30.34,SSE,155,0.0,1.0,69,0.00,,---,0.00,VWS V14.01,2013-04-07 14:27:00,
2013-04-07 10:32:00,55.7,44.1,30.34,WSW,254,0.0,2.0,65,0.00,,---,0.00,VWS V14.01,2013-04-07 14:32:00,
2013-04-07 10:37:00,55.7,45.3,30.34,SW,229,0.0,0.0,68,0.00,,---,0.00,VWS V14.01,2013-04-07 14:37:00,
2013-04-07 10:43:00,56.3,46.7,30.34,NE,48,0.0,3.0,70,0.00,,---,0.00,VWS V14.01,2013-04-07 14:43:00,
2013-04-07 10:47:00,57.0,44.5,30.34,South,182,1.0,3.0,63,0.00,,---,0.00,VWS V14.01,2013-04-07 14:47:00,
2013-04-07 10:53:00,57.6,44.7,30.34,South,179,0.0,2.0,62,0.00,,---,0.00,VWS V14.01,2013-04-07 14:53:00,
2013-04-07 10:58:00,58.0,45.5,30.34,South,176,3.0,3.0,63,0.00,,---,0.00,VWS V14.01,2013-04-07 14:58:00,
2013-04-07 11:03:00,58.4,45.0,30.34,SE,145,1.0,3.0,61,0.00,,---,0.00,VWS V14.01,2013-04-07 15:03:00,
2013-04-07 11:08:00,59.0,44.7,30.34,SSW,192,0.0,2.0,59,0.00,,---,0.00,VWS V14.01,2013-04-07 15:08:00,
2013-04-07 11:13:00,59.8,45.0,30.34,SSE,159,1.0,1.0,58,0.00,,---,0.00,VWS V14.01,2013-04-07 15:13:00,
2013-04-07 11:18:00,59.9,46.9,30.33,WNW,284,0.0,0.0,62,0.00,,---,0.00,VWS V14.01,2013-04-07 15:18:00,
2013-04-07 11:23:00,60.1,44.8,30.33,NNE,17,0.0,2.0,57,0.00,,---,0.00,VWS V14.01,2013-04-07 15:23:00,
2013-04-07 11:28:00,60.9,46.5,30.33,WSW,241,0.0,3.0,59,0.00,,---,0.00,VWS V14.01,2013-04-07 15:28:00,
2013-04-07 11:32:00,61.2,46.3,30.33,ENE,58,0.0,4.0,58,0.00,,---,0.00,VWS V14.01,2013-04-07 15:32:00,
2013-04-07 11:37:00,61.8,45.0,30.33,WSW,251,0.0,2.0,54,0.00,,---,0.00,VWS V14.01,2013-04-07 15:37:00,
2013-04-07 11:43:00,62.6,48.5,30.33,SSE,159,0.0,2.0,60,0.00,,---,0.00,VWS V14.01,2013-04-07 15:43:00,
2013-04-07 11:48:00,63.1,45.7,30.33,South,179,2.0,2.0,53,0.00,,---,0.00,VWS V14.01,2013-04-07 15:48:00,
2013-04-07 11:53:00,63.2,45.3,30.33,NNW,343,2.0,2.0,52,0.00,,---,0.00,VWS V14.01,2013-04-07 15:53:00,
2013-04-07 11:58:00,63.7,46.8,30.33,SE,144,0.0,1.0,54,0.00,,---,0.00,VWS V14.01,2013-04-07 15:58:00,
2013-04-07 12:03:00,64.2,45.7,30.32,ENE,66,0.0,2.0,51,0.00,,---,0.00,VWS V14.01,2013-04-07 16:03:00,
2013-04-07 12:08:00,64.7,46.2,30.32,NW,318,1.0,1.0,51,0.00,,---,0.00,VWS V14.01,2013-04-07 16:08:00,
2013-04-07 12:13:00,65.0,42.6,30.32,WSW,248,0.0,5.0,44,0.00,,---,0.00,VWS V14.01,2013-04-07 16:13:00,
2013-04-07 12:18:00,65.0,43.7,30.31,West,279,2.0,4.0,46,0.00,,---,0.00,VWS V14.01,2013-04-07 16:18:00,
2013-04-07 12:23:00,65.3,44.6,30.31,South,172,0.0,2.0,47,0.00,,---,0.00,VWS V14.01,2013-04-07 16:23:00,
2013-04-07 12:28:00,66.4,43.2,30.31,West,263,1.0,2.0,43,0.00,,---,0.00,VWS V14.01,2013-04-07 16:28:00,
2013-04-07 12:33:00,66.6,43.4,30.31,West,260,1.0,2.0,43,0.00,,---,0.00,VWS V14.01,2013-04-07 16:33:00,
2013-04-07 12:38:00,66.8,40.4,30.31,SSE,165,0.0,6.0,38,0.00,,---,0.00,VWS V14.01,2013-04-07 16:38:00,
2013-04-07 12:43:00,66.9,43.1,30.31,WSW,253,1.0,2.0,42,0.00,,---,0.00,VWS V14.01,2013-04-07 16:43:00,
2013-04-07 12:48:00,67.3,36.5,30.30,North,10,0.0,5.0,32,0.00,,---,0.00,VWS V14.01,2013-04-07 16:48:00,
2013-04-07 12:53:00,67.6,36.7,30.30,WNW,291,1.0,5.0,32,0.00,,---,0.00,VWS V14.01,2013-04-07 16:53:00,
2013-04-07 12:58:00,67.6,35.9,30.30,South,171,0.0,5.0,31,0.00,,---,0.00,VWS V14.01,2013-04-07 16:58:00,
2013-04-07 13:03:00,68.1,41.6,30.29,ESE,123,0.0,2.0,38,0.00,,---,0.00,VWS V14.01,2013-04-07 17:03:00,
2013-04-07 13:08:00,68.6,37.6,30.29,SSE,165,1.0,6.0,32,0.00,,---,0.00,VWS V14.01,2013-04-07 17:08:00,
2013-04-07 13:13:00,69.1,37.2,30.29,NE,55,1.0,2.0,31,0.00,,---,0.00,VWS V14.01,2013-04-07 17:13:00,
2013-04-07 13:18:00,69.3,39.8,30.28,SSE,164,0.0,5.0,34,0.00,,---,0.00,VWS V14.01,2013-04-07 17:18:00,
2013-04-07 13:23:00,69.1,34.7,30.28,WNW,285,0.0,2.0,28,0.00,,---,0.00,VWS V14.01,2013-04-07 17:23:00,
2013-04-07 13:28:00,69.4,42.0,30.28,NNE,24,0.0,3.0,37,0.00,,---,0.00,VWS V14.01,2013-04-07 17:28:00,
2013-04-07 13:33:00,69.8,40.2,30.27,SSE,167,0.0,3.0,34,0.00,,---,0.00,VWS V14.01,2013-04-07 17:33:00,
2013-04-07 13:38:00,69.9,35.3,30.27,NE,39,1.0,5.0,28,0.00,,---,0.00,VWS V14.01,2013-04-07 17:38:00,
2013-04-07 13:43:00,69.9,37.9,30.27,WSW,254,2.0,2.0,31,0.00,,---,0.00,VWS V14.01,2013-04-07 17:43:00,
2013-04-07 13:48:00,70.4,35.8,30.26,West,270,0.0,4.0,28,0.00,,---,0.00,VWS V14.01,2013-04-07 17:48:00,
2013-04-07 13:53:00,70.3,34.8,30.26,NNE,14,0.0,6.0,27,0.00,,---,0.00,VWS V14.01,2013-04-07 17:53:00,
2013-04-07 13:58:00,70.8,37.9,30.26,East,90,0.0,1.0,30,0.00,,---,0.00,VWS V14.01,2013-04-07 17:58:00,
2013-04-07 14:03:00,71.1,35.5,30.25,West,270,0.0,2.0,27,0.00,,---,0.00,VWS V14.01,2013-04-07 18:03:00,
2013-04-07 14:08:00,71.1,37.3,30.25,SSE,158,0.0,3.0,29,0.00,,---,0.00,VWS V14.01,2013-04-07 18:08:00,
2013-04-07 14:13:00,71.6,39.4,30.25,South,176,2.0,2.0,31,0.00,,---,0.00,VWS V14.01,2013-04-07 18:13:00,
2013-04-07 14:18:00,71.6,38.6,30.25,West,278,1.0,2.0,30,0.00,,---,0.00,VWS V14.01,2013-04-07 18:18:00,
2013-04-07 14:23:00,71.6,39.4,30.25,NNW,329,0.0,2.0,31,0.00,,---,0.00,VWS V14.01,2013-04-07 18:23:00,
2013-04-07 14:28:00,71.6,34.9,30.25,West,264,2.0,5.0,26,0.00,,---,0.00,VWS V14.01,2013-04-07 18:28:00,
2013-04-07 14:33:00,71.5,36.7,30.24,NNW,330,0.0,5.0,28,0.00,,---,0.00,VWS V14.01,2013-04-07 18:33:00,
2013-04-07 14:38:00,72.0,38.0,30.24,South,182,0.0,6.0,29,0.00,,---,0.00,VWS V14.01,2013-04-07 18:38:00,
2013-04-07 14:43:00,72.5,40.2,30.24,West,265,0.0,7.0,31,0.00,,---,0.00,VWS V14.01,2013-04-07 18:43:00,
2013-04-07 14:48:00,72.0,37.1,30.23,WSW,239,2.0,7.0,28,0.00,,---,0.00,VWS V14.01,2013-04-07 18:48:00,
2013-04-07 14:53:00,72.1,39.8,30.23,SSE,161,0.0,2.0,31,0.00,,---,0.00,VWS V14.01,2013-04-07 18:53:00,
2013-04-07 14:58:00,72.3,36.5,30.23,SSE,150,1.0,5.0,27,0.00,,---,0.00,VWS V14.01,2013-04-07 18:58:00,
2013-04-07 15:03:00,72.3,38.3,30.22,NW,308,2.0,3.0,29,0.00,,---,0.00,VWS V14.01,2013-04-07 19:03:00,
2013-04-07 15:08:00,72.3,35.5,30.22,South,176,0.0,5.0,26,0.00,,---,0.00,VWS V14.01,2013-04-07 19:08:00,
2013-04-07 15:13:00,72.5,42.6,30.22,SE,144,7.0,7.0,34,0.00,,---,0.00,VWS V14.01,2013-04-07 19:13:00,
2013-04-07 15:18:00,72.3,38.3,30.22,NNW,342,3.0,5.0,29,0.00,,---,0.00,VWS V14.01,2013-04-07 19:18:00,
2013-04-07 15:23:00,72.3,42.4,30.22,West,270,1.0,4.0,34,0.00,,---,0.00,VWS V14.01,2013-04-07 19:23:00,
2013-04-07 15:28:00,72.1,38.1,30.22,East,82,0.0,6.0,29,0.00,,---,0.00,VWS V14.01,2013-04-07 19:28:00,
2013-04-07 15:33:00,72.1,43.0,30.22,South,172,1.0,2.0,35,0.00,,---,0.00,VWS V14.01,2013-04-07 19:33:00,
2013-04-07 15:38:00,72.3,41.6,30.22,NNE,14,0.0,5.0,33,0.00,,---,0.00,VWS V14.01,2013-04-07 19:38:00,
2013-04-07 15:43:00,72.0,46.4,30.22,West,267,0.0,2.0,40,0.00,,---,0.00,VWS V14.01,2013-04-07 19:43:00,
2013-04-07 15:48:00,71.6,42.5,30.21,WSW,254,0.0,3.0,35,0.00,,---,0.00,VWS V14.01,2013-04-07 19:48:00,
2013-04-07 15:53:00,71.8,46.9,30.21,SSE,158,0.0,5.0,41,0.00,,---,0.00,VWS V14.01,2013-04-07 19:53:00,
2013-04-07 15:58:00,72.3,43.1,30.21,SE,128,3.0,3.0,35,0.00,,---,0.00,VWS V14.01,2013-04-07 19:58:00,
2013-04-07 16:03:00,72.3,42.4,30.20,SSW,198,0.0,1.0,34,0.00,,---,0.00,VWS V14.01,2013-04-07 20:03:00,
2013-04-07 16:08:00,72.3,43.1,30.20,WSW,243,0.0,2.0,35,0.00,,---,0.00,VWS V14.01,2013-04-07 20:08:00,
2013-04-07 16:13:00,72.0,42.1,30.20,WNW,303,0.0,5.0,34,0.00,,---,0.00,VWS V14.01,2013-04-07 20:13:00,
2013-04-07 16:18:00,71.8,41.2,30.20,West,267,1.0,6.0,33,0.00,,---,0.00,VWS V14.01,2013-04-07 20:18:00,
2013-04-07 16:23:00,71.8,40.4,30.20,SSW,213,0.0,5.0,32,0.00,,---,0.00,VWS V14.01,2013-04-07 20:23:00,
2013-04-07 16:28:00,72.3,42.4,30.20,SSE,161,1.0,6.0,34,0.00,,---,0.00,VWS V14.01,2013-04-07 20:28:00,
2013-04-07 16:33:00,72.3,40.8,30.19,NW,308,0.0,8.0,32,0.00,,---,0.00,VWS V14.01,2013-04-07 20:33:00,
2013-04-07 16:38:00,72.7,42.7,30.19,SE,143,1.0,2.0,34,0.00,,---,0.00,VWS V14.01,2013-04-07 20:38:00,
2013-04-07 16:43:00,72.7,42.7,30.19,SW,223,0.0,7.0,34,0.00,,---,0.00,VWS V14.01,2013-04-07 20:43:00,
2013-04-07 16:48:00,72.5,36.7,30.19,West,279,0.0,7.0,27,0.00,,---,0.00,VWS V14.01,2013-04-07 20:48:00,
2013-04-07 16:53:00,72.3,36.5,30.19,NW,315,2.0,6.0,27,0.00,,---,0.00,VWS V14.01,2013-04-07 20:53:00,
2013-04-07 16:58:00,72.1,38.1,30.19,SW,227,0.0,6.0,29,0.00,,---,0.00,VWS V14.01,2013-04-07 20:58:00,
2013-04-07 17:03:00,72.3,38.3,30.19,ENE,78,0.0,2.0,29,0.00,,---,0.00,VWS V14.01,2013-04-07 21:03:00,
2013-04-07 17:09:00,72.3,44.6,30.19,SSE,155,2.0,4.0,37,0.00,,---,0.00,VWS V14.01,2013-04-07 21:09:00,
2013-04-07 17:14:00,72.1,40.7,30.19,ESE,104,0.0,4.0,32,0.00,,---,0.00,VWS V14.01,2013-04-07 21:14:00,
2013-04-07 17:19:00,71.8,42.0,30.19,South,174,1.0,6.0,34,0.00,,---,0.00,VWS V14.01,2013-04-07 21:19:00,
2013-04-07 17:24:00,71.5,42.4,30.19,WSW,253,1.0,4.0,35,0.00,,---,0.00,VWS V14.01,2013-04-07 21:24:00,
2013-04-07 17:29:00,71.3,43.0,30.19,South,181,0.0,4.0,36,0.00,,---,0.00,VWS V14.01,2013-04-07 21:29:00,
2013-04-07 17:34:00,71.3,42.3,30.19,West,279,1.0,2.0,35,0.00,,---,0.00,VWS V14.01,2013-04-07 21:34:00,
2013-04-07 17:39:00,71.3,43.0,30.19,West,279,0.0,4.0,36,0.00,,---,0.00,VWS V14.01,2013-04-07 21:39:00,
2013-04-07 17:44:00,71.3,45.1,30.19,South,169,6.0,6.0,39,0.00,,---,0.00,VWS V14.01,2013-04-07 21:44:00,
2013-04-07 17:49:00,71.5,43.9,30.18,South,174,3.0,3.0,37,0.00,,---,0.00,VWS V14.01,2013-04-07 21:49:00,
2013-04-07 17:54:00,71.5,44.6,30.18,West,264,0.0,6.0,38,0.00,,---,0.00,VWS V14.01,2013-04-07 21:54:00,
2013-04-07 17:59:00,71.5,43.9,30.19,South,185,0.0,5.0,37,0.00,,---,0.00,VWS V14.01,2013-04-07 21:59:00,
2013-04-07 18:04:00,71.5,43.2,30.19,WNW,284,0.0,7.0,36,0.00,,---,0.00,VWS V14.01,2013-04-07 22:04:00,
2013-04-07 18:09:00,71.5,43.9,30.19,ESE,123,1.0,7.0,37,0.00,,---,0.00,VWS V14.01,2013-04-07 22:09:00,
2013-04-07 18:14:00,71.3,44.4,30.19,South,178,0.0,5.0,38,0.00,,---,0.00,VWS V14.01,2013-04-07 22:14:00,
2013-04-07 18:19:00,71.1,44.2,30.19,South,171,0.0,5.0,38,0.00,,---,0.00,VWS V14.01,2013-04-07 22:19:00,
2013-04-07 18:24:00,71.1,44.2,30.19,SE,124,3.0,4.0,38,0.00,,---,0.00,VWS V14.01,2013-04-07 22:24:00,
2013-04-07 18:29:00,70.9,44.0,30.19,WNW,298,1.0,3.0,38,0.00,,---,0.00,VWS V14.01,2013-04-07 22:29:00,
2013-04-07 18:34:00,70.8,45.3,30.19,WNW,282,0.0,2.0,40,0.00,,---,0.00,VWS V14.01,2013-04-07 22:34:00,
2013-04-07 18:39:00,70.6,45.8,30.19,SW,230,0.0,1.0,41,0.00,,---,0.00,VWS V14.01,2013-04-07 22:39:00,
2013-04-07 18:45:00,70.4,45.6,30.18,South,175,0.0,6.0,41,0.00,,---,0.00,VWS V14.01,2013-04-07 22:45:00,
2013-04-07 18:50:00,70.3,45.5,30.18,SSE,154,0.0,2.0,41,0.00,,---,0.00,VWS V14.01,2013-04-07 22:50:00,
2013-04-07 18:55:00,70.1,45.3,30.18,SSE,155,0.0,2.0,41,0.00,,---,0.00,VWS V14.01,2013-04-07 22:55:00,
2013-04-07 19:00:00,69.8,45.1,30.18,SSE,167,0.0,2.0,41,0.00,,---,0.00,VWS V14.01,2013-04-07 23:00:00,
2013-04-07 19:05:00,69.6,46.1,30.18,West,278,0.0,1.0,43,0.00,,---,0.00,VWS V14.01,2013-04-07 23:05:00,
2013-04-07 19:10:00,69.6,46.1,30.18,South,179,0.0,1.0,43,0.00,,---,0.00,VWS V14.01,2013-04-07 23:10:00,
2013-04-07 19:15:00,69.4,47.2,30.19,West,281,2.0,2.0,45,0.00,,---,0.00,VWS V14.01,2013-04-07 23:15:00,
2013-04-07 19:20:00,69.4,45.3,30.19,West,267,0.0,3.0,42,0.00,,---,0.00,VWS V14.01,2013-04-07 23:20:00,
2013-04-07 19:25:00,69.4,46.0,30.19,SSW,198,0.0,1.0,43,0.00,,---,0.00,VWS V14.01,2013-04-07 23:25:00,
2013-04-07 19:30:00,69.3,46.5,30.19,ENE,75,0.0,2.0,44,0.00,,---,0.00,VWS V14.01,2013-04-07 23:30:00,
2013-04-07 19:35:00,69.1,46.9,30.19,ENE,75,0.0,0.0,45,0.00,,---,0.00,VWS V14.01,2013-04-07 23:35:00,
2013-04-07 19:40:00,68.8,47.2,30.19,ENE,75,0.0,1.0,46,0.00,,---,0.00,VWS V14.01,2013-04-07 23:40:00,
2013-04-07 19:45:00,68.3,47.3,30.19,ENE,75,0.0,0.0,47,0.00,,---,0.00,VWS V14.01,2013-04-07 23:45:00,
2013-04-07 19:50:00,67.9,47.0,30.19,ENE,75,0.0,0.0,47,0.00,,---,0.00,VWS V14.01,2013-04-07 23:50:00,
2013-04-07 19:55:00,67.6,47.8,30.19,ENE,75,0.0,0.0,49,0.00,,---,0.00,VWS V14.01,2013-04-07 23:55:00,
2013-04-07 20:00:00,67.1,47.9,30.19,ENE,75,0.0,0.0,50,0.00,,---,0.00,VWS V14.01,2013-04-08 00:00:00,
2013-04-07 20:05:00,66.6,47.9,30.19,ENE,75,0.0,0.0,51,0.00,,---,0.00,VWS V14.01,2013-04-08 00:05:00,
2013-04-07 20:10:00,66.3,48.7,30.19,ENE,75,0.0,0.0,53,0.00,,---,0.00,VWS V14.01,2013-04-08 00:10:00,
2013-04-07 20:15:00,65.8,48.2,30.19,ENE,75,0.0,0.0,53,0.00,,---,0.00,VWS V14.01,2013-04-08 00:15:00,
2013-04-07 20:20:00,65.2,49.1,30.19,ENE,75,0.0,0.0,56,0.00,,---,0.00,VWS V14.01,2013-04-08 00:20:00,
2013-04-07 20:25:00,64.7,49.1,30.19,ENE,75,0.0,0.0,57,0.00,,---,0.00,VWS V14.01,2013-04-08 00:25:00,
2013-04-07 20:30:00,64.2,49.6,30.20,ENE,75,0.0,0.0,59,0.00,,---,0.00,VWS V14.01,2013-04-08 00:30:00,
2013-04-07 20:35:00,63.4,49.7,30.20,ENE,75,0.0,0.0,61,0.00,,---,0.00,VWS V14.01,2013-04-08 00:35:00,
2013-04-07 20:40:00,62.9,49.3,30.20,ENE,75,0.0,0.0,61,0.00,,---,0.00,VWS V14.01,2013-04-08 00:40:00,
2013-04-07 20:45:00,62.3,49.6,30.20,ENE,75,0.0,0.0,63,0.00,,---,0.00,VWS V14.01,2013-04-08 00:45:00,
2013-04-07 20:50:00,61.8,49.5,30.20,ENE,75,0.0,0.0,64,0.00,,---,0.00,VWS V14.01,2013-04-08 00:50:00,
2013-04-07 20:55:00,61.3,49.5,30.20,ENE,75,0.0,0.0,65,0.00,,---,0.00,VWS V14.01,2013-04-08 00:55:00,
2013-04-07 21:00:00,61.0,50.0,30.20,ENE,75,0.0,0.0,67,0.00,,---,0.00,VWS V14.01,2013-04-08 01:00:00,
2013-04-07 21:05:00,60.4,50.2,30.20,ENE,75,0.0,0.0,69,0.00,,---,0.00,VWS V14.01,2013-04-08 01:05:00,
2013-04-07 21:10:00,60.1,50.7,30.20,ENE,75,0.0,0.0,71,0.00,,---,0.00,VWS V14.01,2013-04-08 01:10:00,
2013-04-07 21:15:00,59.8,50.4,30.20,ENE,75,0.0,0.0,71,0.00,,---,0.00,VWS V14.01,2013-04-08 01:15:00,
2013-04-07 21:20:00,59.5,50.5,30.20,ENE,75,0.0,0.0,72,0.00,,---,0.00,VWS V14.01,2013-04-08 01:20:00,
2013-04-07 21:25:00,59.2,50.2,30.20,ENE,75,0.0,0.0,72,0.00,,---,0.00,VWS V14.01,2013-04-08 01:25:00,
2013-04-07 21:30:00,58.7,50.8,30.21,ENE,75,0.0,0.0,75,0.00,,---,0.00,VWS V14.01,2013-04-08 01:30:00,
2013-04-07 21:35:00,58.4,50.5,30.21,ENE,75,0.0,0.0,75,0.00,,---,0.00,VWS V14.01,2013-04-08 01:35:00,
2013-04-07 21:40:00,58.1,50.6,30.21,ENE,73,0.0,0.0,76,0.00,,---,0.00,VWS V14.01,2013-04-08 01:40:00,
2013-04-07 21:45:00,57.8,50.7,30.21,ENE,73,0.0,0.0,77,0.00,,---,0.00,VWS V14.01,2013-04-08 01:45:00,
2013-04-07 21:50:00,57.5,50.4,30.21,ENE,73,0.0,0.0,77,0.00,,---,0.00,VWS V14.01,2013-04-08 01:50:00,
2013-04-07 21:55:00,57.0,50.9,30.21,ENE,73,0.0,0.0,80,0.00,,---,0.00,VWS V14.01,2013-04-08 01:55:00,
2013-04-07 22:00:00,56.9,50.5,30.22,ENE,73,0.0,0.0,79,0.00,,---,0.00,VWS V14.01,2013-04-08 02:00:00,
2013-04-07 22:05:00,56.6,50.5,30.22,ENE,73,0.0,0.0,80,0.00,,---,0.00,VWS V14.01,2013-04-08 02:05:00,
2013-04-07 22:10:00,56.5,51.1,30.22,ENE,73,0.0,0.0,82,0.00,,---,0.00,VWS V14.01,2013-04-08 02:10:00,
2013-04-07 22:15:00,56.2,50.8,30.21,ENE,73,0.0,0.0,82,0.00,,---,0.00,VWS V14.01,2013-04-08 02:15:00,
2013-04-07 22:20:00,56.0,50.6,30.21,ENE,73,0.0,0.0,82,0.00,,---,0.00,VWS V14.01,2013-04-08 02:20:00,
2013-04-07 22:25:00,55.7,51.0,30.21,ENE,73,0.0,0.0,84,0.00,,---,0.00,VWS V14.01,2013-04-08 02:25:00,
2013-04-07 22:30:00,55.6,50.8,30.20,ENE,73,0.0,0.0,84,0.00,,---,0.00,VWS V14.01,2013-04-08 02:30:00,
2013-04-07 22:36:00,55.3,50.6,30.20,ENE,73,0.0,0.0,84,0.00,,---,0.00,VWS V14.01,2013-04-08 02:36:00,
2013-04-07 22:41:00,55.1,51.3,30.20,ENE,73,0.0,0.0,87,0.00,,---,0.00,VWS V14.01,2013-04-08 02:41:00,
2013-04-07 22:47:00,54.8,51.6,30.20,ENE,73,0.0,0.0,89,0.00,,---,0.00,VWS V14.01,2013-04-08 02:47:00,
2013-04-07 22:52:00,54.5,51.0,30.20,ENE,73,0.0,0.0,88,0.00,,---,0.00,VWS V14.01,2013-04-08 02:52:00,
2013-04-07 22:57:00,54.4,51.5,30.20,ENE,73,0.0,0.0,90,0.00,,---,0.00,VWS V14.01,2013-04-08 02:57:00,
2013-04-07 23:02:00,54.2,51.0,30.20,ENE,73,0.0,0.0,89,0.00,,---,0.00,VWS V14.01,2013-04-08 03:02:00,
2013-04-07 23:07:00,53.9,51.6,30.20,ENE,73,0.0,0.0,92,0.00,,---,0.00,VWS V14.01,2013-04-08 03:07:00,
2013-04-07 23:12:00,53.8,51.8,30.20,ENE,73,0.0,0.0,93,0.00,,---,0.00,VWS V14.01,2013-04-08 03:12:00,
2013-04-07 23:17:00,53.6,52.2,30.20,ENE,73,0.0,0.0,95,0.00,,---,0.00,VWS V14.01,2013-04-08 03:17:00,
2013-04-07 23:22:00,53.3,51.9,30.20,ENE,73,0.0,0.0,95,0.00,,---,0.00,VWS V14.01,2013-04-08 03:22:00,
2013-04-07 23:27:00,53.2,51.8,30.20,ENE,73,0.0,0.0,95,0.00,,---,0.00,VWS V14.01,2013-04-08 03:27:00,
2013-04-07 23:32:00,53.2,52.1,30.20,ENE,73,0.0,0.0,96,0.00,,---,0.00,VWS V14.01,2013-04-08 03:32:00,
2013-04-07 23:37:00,53.2,52.4,30.20,ENE,73,0.0,0.0,97,0.00,,---,0.00,VWS V14.01,2013-04-08 03:37:00,
2013-04-07 23:42:00,53.2,52.1,30.20,ENE,73,0.0,0.0,96,0.00,,---,0.00,VWS V14.01,2013-04-08 03:42:00,
2013-04-07 23:47:00,53.2,52.4,30.19,ENE,73,0.0,0.0,97,0.00,,---,0.00,VWS V14.01,2013-04-08 03:47:00,
2013-04-07 23:52:00,53.2,52.4,30.19,ENE,73,0.0,0.0,97,0.00,,---,0.00,VWS V14.01,2013-04-08 03:52:00,
2013-04-07 23:57:00,53.2,52.4,30.19,ENE,73,0.0,0.0,97,0.00,,---,0.00,VWS V14.01,2013-04-08 03:57:00,